Search for airport 
image banner adimage banner adimage banner ad
image banner ad

CN30 - Oceanside Fire Department

Located in Oceanside, United States

ICAO - CN30, IATA -

Data provided by Airmate  

General information

Coordinates: N33°12'42" W117°21'15"
Elevation is 30 feet MSL.
 
View others Airports in California

Operational data

Special qualification required
Current time UTC:
Current local time:
METAR: KOKB 291452Z AUTO 00000KT 5SM BR SCT003 19/18 A2993 RMK AO2 SLP134 T01890178 51006
View NOTAMs / SUP AIP / TFR affecting this airport [VIEW]
Communications frequencies: [VIEW]

Runways:

Airport contact information

Address: Oceanside United States

Satellite view of CN30